Date,TemperatureHighF,TemperatureAvgF,TemperatureLowF,DewpointHighF,DewpointAvgF,DewpointLowF,HumidityHigh,HumidityAvg,HumidityLow,PressureMaxIn,PressureMinIn,WindSpeedMaxMPH,WindSpeedAvgMPH,GustSpeedMaxMPH,PrecipitationSumIn
2013-1-2,56.7,40.4,33.2,41.3,35.0,30.9,91,82,47,30.03,29.99,0,0,0,0.01
2013-1-3,56.4,40.0,29.8,42.8,34.7,28.3,97,83,51,30.10,30.02,3,0,0,0.02
2013-1-15,54.9,43.6,31.5,35.4,30.6,27.3,90,64,35,30.28,30.25,2,0,0,0.01
2013-1-16,56.8,39.0,28.5,38.6,31.8,26.5,95,78,43,30.29,30.11,3,0,0,0.06
2013-1-17,62.2,41.5,29.9,43.3,34.3,28.1,96,78,42,30.12,30.00,1,0,0,0.08
2013-1-18,64.0,43.4,31.3,44.8,36.1,29.8,96,78,41,30.08,29.98,1,0,0,0.09
2013-1-19,63.1,43.6,30.8,45.7,36.5,29.0,96,78,45,30.10,30.00,1,0,0,0.07
2013-1-20,65.2,44.4,31.8,43.6,35.5,30.1,96,75,35,30.09,29.98,2,0,0,0.00
2013-1-21,63.9,43.4,29.7,44.0,35.3,27.7,96,77,37,30.03,29.93,3,0,0,0.03
2013-1-22,61.6,45.1,32.4,46.7,38.0,30.6,96,79,44,29.96,29.85,3,0,0,0.06
2013-1-23,55.0,48.6,44.4,50.2,45.6,39.4,96,89,80,29.94,29.82,0,0,0,0.09
2013-1-24,56.3,51.4,48.9,52.5,49.9,47.8,97,95,87,30.05,29.92,0,0,0,0.03
2013-1-25,54.9,52.6,52.2,54.1,51.6,51.1,97,96,96,30.05,30.00,0,0,0,0.03
2013-1-26,55.6,48.1,40.2,44.4,41.2,37.8,91,78,62,29.96,29.88,9,0,12,0.00
2013-1-27,56.2,45.5,37.1,41.7,38.1,32.2,96,77,40,30.03,29.94,5,0,0,0.01
2013-1-28,57.5,47.8,37.9,44.1,40.6,35.2,94,77,57,30.15,30.02,3,0,12,0.00
2013-1-29,57.4,43.4,36.1,44.5,38.8,34.1,96,85,61,30.22,30.14,3,0,0,0.00
2013-1-30,68.3,55.7,40.5,46.9,42.6,38.0,92,65,41,30.19,30.10,2,0,0,0.00
2013-1-31,65.7,47.5,35.4,48.7,40.9,33.8,96,80,49,30.14,30.03,1,0,0,0.00
2013-2-1,66.6,49.0,36.1,51.0,42.7,34.5,97,81,48,30.07,29.96,3,0,0,0.01
2013-2-2,57.8,47.6,40.7,50.7,44.5,39.1,96,89,76,30.15,30.07,2,0,0,0.00
2013-2-5,54.9,47.6,41.6,47.0,42.9,38.3,92,84,74,30.01,29.96,2,0,0,0.00
2013-2-6,59.4,44.5,34.4,45.6,38.8,32.9,96,82,57,30.06,29.97,6,0,0,0.02
2013-2-7,56.1,43.6,34.2,47.5,38.8,32.4,97,84,54,30.04,29.86,5,0,12,0.07
2013-2-8,52.8,43.1,35.0,42.7,38.7,32.8,96,85,61,29.87,29.80,9,0,12,0.07
2013-2-9,57.7,42.1,30.8,38.0,31.7,27.8,94,71,34,29.96,29.85,2,0,0,0.06
2013-2-10,60.9,43.0,30.1,40.6,34.0,28.1,95,74,39,29.98,29.87,2,0,0,0.05
2013-2-11,63.8,44.9,31.6,38.4,32.8,29.6,95,69,29,30.09,29.92,2,0,0,0.03
2013-2-12,61.7,44.7,32.4,45.0,37.1,30.3,96,77,42,30.20,30.09,3,0,0,0.01
2013-2-13,64.9,46.7,33.6,47.3,38.8,31.8,100,77,41,30.20,30.07,3,0,0,0.00
2013-2-14,69.7,50.2,35.5,46.8,39.9,33.7,96,72,38,30.10,30.00,3,0,0,0.00
2013-2-15,72.3,52.8,38.6,48.9,42.1,36.5,95,71,35,30.12,30.05,3,0,0,0.00
2013-2-16,69.0,51.6,38.4,51.7,43.8,36.6,96,77,49,30.08,29.91,2,0,0,0.00
2013-2-17,64.4,48.5,37.3,48.1,41.7,35.5,97,80,51,29.92,29.82,5,0,0,0.00
2013-2-18,54.1,44.3,34.1,45.4,38.4,32.3,96,81,58,29.91,29.84,4,0,0,0.00
2013-2-19,47.3,44.0,38.3,44.7,40.1,35.4,94,86,72,29.85,29.62,7,0,15,0.32
2013-2-20,59.0,57.1,52.3,41.3,39.0,33.4,64,51,39,29.86,29.82,4,1,0,0.00
2013-2-21,59.3,50.0,36.1,39.3,35.7,32.6,92,61,38,30.03,29.95,6,1,0,0.00
2013-2-22,63.8,44.7,32.8,42.6,36.5,30.6,96,76,34,30.11,30.03,4,0,0,0.00
2013-2-23,57.8,48.7,37.2,46.3,39.4,34.3,92,72,45,30.11,30.01,6,0,13,0.00
2013-2-24,63.4,47.2,33.2,36.5,31.4,27.2,89,59,26,30.11,30.02,3,0,0,0.00
2013-2-25,61.5,44.2,32.8,45.8,36.6,30.2,95,77,50,30.13,30.02,1,0,0,0.00
2013-2-26,66.6,58.5,45.5,38.1,33.8,30.3,67,41,26,30.05,29.98,2,0,0,0.00
2013-2-27,68.4,65.3,42.5,45.3,42.4,39.8,96,45,38,30.17,30.11,1,0,0,0.00
2013-2-28,59.4,54.7,49.4,51.3,50.2,48.3,96,85,72,30.30,30.29,0,0,0,0.00
2013-3-7,57.9,51.7,46.2,45.2,42.7,38.8,94,73,50,29.81,29.71,2,0,0,0.28
2013-3-8,54.6,45.8,44.0,48.9,44.3,42.7,96,94,73,29.75,29.69,1,0,0,0.08
2013-3-16,69.8,58.5,51.4,43.6,41.4,37.8,73,55,31,29.97,29.89,4,0,0,0.00
2013-3-17,68.3,53.6,39.5,47.3,42.1,37.2,95,68,39,30.01,29.90,4,0,0,0.00
2013-3-28,65.6,57.4,51.7,55.3,52.1,49.2,91,83,69,29.94,29.89,1,0,0,0.03
2013-3-29,78.1,60.9,47.6,56.4,51.4,45.9,97,74,45,29.95,29.85,6,0,0,0.00
2013-3-30,58.3,57.4,56.5,54.0,53.8,53.7,91,88,85,29.88,29.86,0,0,0,0.08
2013-3-31,61.3,53.3,48.9,56.9,51.1,47.3,97,93,77,29.92,29.85,0,0,0,0.02
2013-4-15,48.7,46.5,45.3,38.4,37.4,35.4,75,70,60,29.83,29.77,6,1,12,0.00
2013-4-16,66.9,51.2,35.4,38.9,35.1,32.3,92,59,29,30.00,29.83,6,0,14,0.00
2013-4-17,68.8,54.8,39.6,39.9,35.4,28.4,89,54,23,30.12,30.00,7,0,14,0.00
2013-4-18,77.0,58.0,40.0,45.4,38.7,34.2,88,56,24,30.12,30.02,5,0,0,0.00
2013-4-19,81.5,61.3,42.8,56.5,46.5,39.5,94,62,29,30.09,29.93,11,0,12,0.00
2013-4-20,81.1,62.5,45.9,50.5,45.4,41.4,93,60,26,29.97,29.83,6,0,0,0.00
2013-4-21,86.8,65.1,44.8,55.7,45.4,40.6,94,58,20,29.90,29.77,5,0,0,0.00
2013-4-22,78.8,54.7,49.1,54.6,46.9,44.2,87,77,33,29.82,29.78,0,0,0,0.00
2013-5-25,54.9,54.7,54.5,47.9,47.6,47.1,78,77,75,29.92,29.90,0,0,0,0.00
2013-5-26,68.7,66.8,64.4,53.7,52.8,52.0,67,61,56,29.98,29.97,6,1,0,0.00
2013-5-27,64.5,62.8,60.7,54.1,53.3,52.8,78,71,68,29.95,29.90,1,0,0,0.00
2013-5-28,69.0,67.3,66.3,57.5,56.7,56.2,72,69,64,29.87,29.85,2,1,0,0.00
2013-6-5,67.0,65.9,62.6,55.5,54.8,54.2,74,67,65,29.84,29.84,1,0,0,0.00
2013-6-18,65.6,60.4,55.9,51.7,49.8,48.8,78,68,57,29.90,29.88,5,1,12,0.00
2013-6-19,65.6,56.3,51.4,48.8,46.8,45.1,84,71,52,29.92,29.87,4,0,0,0.00
2013-6-20,69.5,66.2,61.8,46.6,45.5,44.9,56,48,42,29.84,29.83,6,1,0,0.00
2013-6-21,79.3,69.3,63.8,48.7,46.0,41.4,58,46,26,29.78,29.78,0,0,0,0.00
2013-6-22,90.1,74.6,61.7,57.7,50.0,43.5,72,44,25,29.77,29.72,5,0,15,0.00
2013-6-23,66.8,66.8,66.8,57.5,57.5,57.5,72,72,72,29.75,29.75,0,0,0,0.00
2013-6-24,67.9,65.6,60.9,61.7,60.5,58.6,92,84,76,29.76,29.69,2,0,0,0.04
2013-6-25,74.2,73.5,72.9,64.2,63.7,63.3,72,71,71,29.84,29.83,0,0,0,0.01
2013-6-26,86.7,77.6,63.4,67.1,62.8,57.8,82,61,46,29.91,29.84,5,0,0,0.00
2013-6-27,91.1,72.2,57.1,64.6,58.8,54.8,96,68,32,29.94,29.87,4,0,0,0.00
2013-7-1,70.9,69.0,67.1,59.8,58.8,58.1,73,70,68,29.71,29.69,0,0,0,0.00
2013-7-2,76.6,65.6,62.3,61.7,59.0,57.8,87,80,60,29.75,29.69,1,0,0,0.00
2013-7-3,72.1,69.1,66.1,61.2,59.7,58.9,78,72,64,29.74,29.63,0,0,0,0.00
2013-7-4,94.1,76.1,63.2,66.7,60.0,51.2,88,61,28,29.65,29.54,5,0,0,0.00
2013-7-5,69.6,58.5,54.3,56.0,-2.5,-99.9,86,79,61,29.67,29.60,2,0,0,0.00
2013-7-6,80.7,67.4,58.1,57.8,29.0,-99.9,81,63,44,29.67,29.58,2,0,0,0.00
2013-7-7,78.2,67.1,57.8,59.3,27.5,-99.9,82,66,49,29.70,29.63,4,0,0,0.00
2013-7-8,78.7,73.6,68.9,59.4,8.9,-99.9,66,59,50,29.82,29.76,2,0,0,0.00
2013-7-9,85.7,79.0,65.4,63.7,15.5,-99.9,80,55,43,29.89,29.78,4,0,0,0.00
2013-7-10,77.9,75.8,63.5,59.9,-55.5,-99.9,79,58,55,29.85,29.81,3,0,0,0.00
2013-7-11,63.1,63.1,63.1,52.8,52.8,52.8,69,69,69,29.77,29.77,0,0,0,0.00
2013-7-14,57.7,56.2,55.1,52.9,52.1,51.3,88,86,84,29.80,29.79,0,0,0,0.00
2013-7-15,67.8,59.2,55.5,55.2,52.3,49.8,88,78,63,29.79,29.77,4,0,0,0.00
2013-7-19,73.3,68.0,63.6,58.1,55.4,54.2,72,64,59,29.79,29.70,3,0,0,0.00
2013-7-20,81.0,68.6,57.1,60.3,56.6,52.4,86,67,48,29.72,29.60,4,0,0,0.00
2013-7-21,61.3,58.5,55.6,55.8,54.2,52.0,89,85,82,29.68,29.64,0,0,0,0.00
2013-7-22,70.2,69.0,67.2,60.6,60.0,58.8,77,73,68,29.80,29.79,0,0,0,0.00
2013-7-23,77.6,71.5,60.4,62.6,59.5,56.8,88,67,55,29.86,29.82,3,0,0,0.00
2013-7-24,83.2,66.6,55.9,63.3,58.1,53.3,93,76,48,29.86,29.76,3,0,0,0.00
2013-7-29,78.7,65.9,58.2,57.3,54.1,52.7,83,67,47,29.87,29.78,1,0,0,0.00
2013-7-30,59.7,58.1,56.3,53.9,52.0,50.3,83,80,77,29.93,29.87,0,0,0,0.00
2013-8-30,76.3,67.1,60.9,55.6,54.4,53.6,77,64,47,29.82,29.79,0,0,0,0.00
2013-8-31,83.2,67.8,52.7,62.1,55.7,49.4,93,68,40,29.84,29.75,6,0,0,0.00
2013-9-1,80.7,69.6,59.0,61.1,58.3,56.1,90,69,44,29.82,29.73,5,0,0,0.00
2013-9-2,78.7,69.6,61.9,64.6,60.9,58.3,88,75,53,29.82,29.75,9,0,0,0.00
2013-9-3,75.0,59.4,52.9,57.9,54.1,50.3,93,84,51,29.87,29.81,0,0,0,0.00
2013-9-8,87.0,77.1,62.4,64.5,61.0,57.8,85,59,45,29.69,29.61,2,0,0,0.00
2013-9-9,81.6,81.6,81.6,62.8,62.8,62.8,53,53,53,29.66,29.66,0,0,0,0.00
2013-9-10,82.8,75.0,65.6,62.9,60.3,56.6,77,61,48,29.72,29.65,4,0,0,0.00
2013-9-23,81.9,71.9,58.3,59.5,56.6,54.4,87,61,40,29.84,29.79,4,0,0,0.01
2013-9-24,74.5,63.0,53.4,55.7,52.9,49.3,93,72,47,29.88,29.81,9,1,14,0.00
2013-9-26,53.8,51.5,49.4,43.9,42.6,41.7,75,72,69,29.84,29.83,0,0,0,0.00
2013-9-27,49.2,46.1,44.4,42.8,41.3,40.5,87,83,75,29.94,29.84,0,0,0,0.00
2013-10-2,75.8,70.1,58.2,56.3,54.2,52.1,80,58,47,29.87,29.81,4,0,0,0.00
2013-10-8,76.3,71.8,54.7,50.2,48.0,44.2,78,44,36,29.76,29.63,7,0,0,0.00
2013-10-9,69.5,60.0,47.7,48.5,44.8,40.6,83,59,42,29.62,29.51,6,0,0,0.00
2013-10-10,71.6,51.9,43.7,51.1,43.2,39.5,87,74,45,29.78,29.62,5,0,0,0.00
2013-10-16,54.6,52.4,50.0,41.8,40.1,39.0,66,63,59,29.92,29.90,0,0,0,0.00
2013-10-17,81.7,59.1,43.3,46.6,40.5,36.0,84,55,21,29.94,29.82,5,0,0,0.00
2013-10-18,74.7,49.6,41.2,53.1,41.0,35.5,92,74,42,29.92,29.85,3,0,0,0.00
2013-10-20,73.6,56.9,46.7,55.4,48.3,43.3,90,75,52,29.82,29.77,1,0,0,0.00
2013-10-21,68.9,54.7,43.6,54.9,48.5,41.0,93,81,58,29.88,29.78,5,0,0,0.00
2013-10-22,72.0,52.9,43.5,56.9,48.4,40.9,94,86,57,29.89,29.80,4,0,0,0.01
2013-10-23,65.3,55.0,47.5,53.6,49.2,44.6,93,81,65,29.85,29.77,2,0,0,0.01
2013-10-24,62.0,53.7,44.9,51.3,48.5,42.4,92,83,67,29.98,29.85,5,0,0,0.00
2013-10-25,69.4,52.4,41.5,54.2,46.1,39.4,95,81,54,30.04,29.95,4,0,0,0.00
2013-10-27,55.2,54.6,54.2,49.4,47.2,45.8,81,76,72,29.62,29.56,26,5,0,0.00
2013-10-28,56.5,54.4,52.5,50.2,46.9,45.0,88,76,71,29.73,29.56,17,1,0,0.00
2013-10-29,64.1,54.3,44.1,50.5,47.0,41.1,90,77,53,29.93,29.73,4,0,0,0.00
2013-10-30,67.8,50.9,39.9,49.9,43.3,37.8,95,78,44,30.02,29.93,5,0,0,0.01
2013-10-31,73.0,53.4,40.0,50.7,43.3,37.6,94,72,37,30.04,29.92,4,0,0,0.00
2013-11-1,75.6,54.9,41.1,51.1,44.2,38.4,94,71,35,30.00,29.87,3,0,0,0.00
2013-11-2,67.5,49.3,41.5,54.0,44.2,39.0,94,84,60,29.90,29.82,3,0,0,0.00
2013-11-5,72.6,52.7,37.9,44.4,37.2,33.4,86,61,27,30.08,29.94,3,0,0,0.00
2013-11-6,73.0,51.0,40.2,46.3,39.0,35.9,89,68,31,30.12,30.03,4,0,0,0.00
2013-11-7,71.0,55.0,45.2,50.6,45.1,40.8,85,71,42,29.97,29.93,1,0,0,0.00
2013-11-8,63.9,46.2,41.1,53.5,42.6,38.4,94,88,68,29.95,29.92,2,0,0,0.00
2013-11-13,56.0,50.7,46.5,50.9,47.2,43.7,91,88,83,30.00,29.97,0,0,0,0.00
2013-11-14,65.6,53.2,43.6,54.7,48.7,41.1,94,85,67,30.00,29.76,4,0,0,0.00
2013-11-15,63.6,47.6,39.3,45.8,41.2,37.1,95,81,42,29.77,29.64,4,0,0,0.01
2013-11-19,60.6,57.4,56.0,56.0,54.8,53.5,95,91,78,29.87,29.81,1,0,0,0.41
2013-11-20,60.9,57.1,54.5,57.9,55.3,53.1,96,94,87,29.82,29.72,4,0,0,0.34
2013-11-21,60.1,51.2,46.7,43.4,37.0,29.4,72,59,43,29.86,29.77,1,0,0,0.02
2013-11-22,68.5,51.1,35.5,41.6,32.0,22.6,86,54,22,29.91,29.77,4,0,0,0.00
2013-11-26,49.4,47.0,45.6,44.5,43.2,42.3,90,86,83,29.95,29.89,0,0,0,0.00
2013-11-27,63.1,46.3,38.3,48.3,41.7,36.2,95,85,59,29.89,29.72,3,0,0,0.00
2013-11-28,49.2,45.6,42.6,43.9,41.4,39.6,89,85,81,29.95,29.88,0,0,0,0.00
2013-11-29,43.2,40.4,38.4,40.9,38.1,36.3,95,91,89,30.02,29.94,0,0,0,0.00
2013-12-2,57.7,53.9,49.2,49.4,47.8,45.5,87,80,73,29.91,29.88,1,0,0,0.00
2013-12-3,39.6,36.3,34.4,34.9,32.7,30.9,90,87,83,29.81,29.75,0,0,0,0.00
2013-12-4,52.4,37.5,28.9,31.9,27.3,23.9,90,70,35,29.95,29.81,4,0,0,0.00
2013-12-5,51.4,35.0,24.2,26.8,22.5,18.8,92,65,28,30.03,29.94,4,0,0,0.01
2013-12-6,53.4,35.6,29.0,37.3,29.8,25.2,94,81,46,30.05,29.97,3,0,0,0.00
2013-12-8,46.1,36.1,26.1,28.7,25.5,22.3,87,67,45,30.19,30.08,5,0,0,0.01
2013-12-9,47.2,28.2,22.7,29.6,23.0,19.7,89,81,49,30.26,30.17,0,0,0,0.00
2013-12-10,53.1,35.6,24.5,34.3,26.4,21.7,93,72,40,30.26,30.06,6,0,0,0.00
2013-12-11,53.2,38.8,30.8,32.5,30.0,27.4,91,72,41,30.10,30.04,3,0,0,0.00
2013-12-12,59.6,39.9,28.0,39.4,31.4,25.5,93,75,38,30.12,30.01,4,0,0,0.01
2013-12-13,59.0,40.8,30.2,43.1,34.4,28.1,95,80,46,30.19,30.09,2,0,0,0.00
2013-12-14,61.2,42.0,30.8,43.6,34.2,28.5,95,76,42,30.25,30.16,3,0,0,0.01
2013-12-15,62.2,43.1,30.8,42.7,35.0,28.7,95,76,42,30.23,30.08,3,0,0,0.00
2013-12-17,64.1,58.2,45.8,41.6,40.7,39.0,82,53,42,30.03,29.92,3,0,0,0.00
2013-12-18,50.2,44.6,39.9,44.3,41.1,37.5,92,87,79,29.70,29.66,1,0,0,0.00
2013-12-19,49.3,43.1,36.5,42.7,39.0,33.7,94,85,75,29.68,29.60,9,0,0,0.00
2013-12-21,61.4,49.1,39.0,49.4,42.8,36.4,92,80,62,29.94,29.84,3,0,0,0.00
2013-12-22,63.5,42.0,35.5,49.8,37.5,33.6,96,85,40,30.14,29.94,2,0,0,0.00
2013-12-23,62.4,45.3,34.6,46.8,38.6,32.2,95,79,47,30.24,30.14,3,0,0,0.00
2013-12-24,63.7,42.7,35.9,46.7,37.2,33.6,95,83,47,30.20,30.12,0,0,0,0.00
2013-12-27,44.9,41.0,37.0,41.1,37.9,34.3,90,89,86,30.02,29.97,0,0,0,0.01
2013-12-28,65.3,43.8,31.1,44.4,33.7,29.1,95,72,30,30.01,29.89,2,0,0,0.00
2013-12-29,67.7,47.0,32.9,38.8,29.6,23.1,82,59,22,30.03,29.94,5,0,0,0.00